This is the latest recevied weather packets stored in our database for station/object N0QV. If no packets are shown the sender has not sent any weather packets the latest 10 day(s).
| Time | Temp. | Humidity | Pressure | Rain* | Wind** | Luminosity | Snow |
|---|---|---|---|---|---|---|---|
| 1777850872 | 22.22° C | 25% | 1006.1 hPa | 0 mm | - | 150 W/m² | - |
| 1777850570 | 22.78° C | 25% | 1005.9 hPa | 0 mm | - | 158 W/m² | - |
| 1777850268 | 22.78° C | 25% | 1006.1 hPa | 0 mm | - | 169 W/m² | - |
| 1777849965 | 22.78° C | 24% | 1006.4 hPa | 0 mm | - | 167 W/m² | - |
| 1777849660 | 22.22° C | 25% | 1006.3 hPa | 0 mm | - | 191 W/m² | - |
| 1777849358 | 22.22° C | 26% | 1006.1 hPa | 0 mm | - | 222 W/m² | - |
| 1777849056 | 22.78° C | 25% | 1006.4 hPa | 0 mm | - | 253 W/m² | - |
| 1777848755 | 22.78° C | 26% | 1006.4 hPa | 0 mm | - | 272 W/m² | - |
| 1777848452 | 22.78° C | 26% | 1006.3 hPa | 0 mm | - | 281 W/m² | - |
| 1777848150 | 22.78° C | 25% | 1006.3 hPa | 0 mm | - | 252 W/m² | - |
| 1777847847 | 22.78° C | 25% | 1006.5 hPa | 0 mm | - | 299 W/m² | - |
| 1777847545 | 22.78° C | 26% | 1006.1 hPa | 0 mm | - | 328 W/m² | - |
| 1777847241 | 22.78° C | 27% | 1006 hPa | 0 mm | - | 324 W/m² | - |
| 1777846939 | 22.78° C | 27% | 1006.3 hPa | 0 mm | - | 314 W/m² | - |
| 1777846637 | 22.78° C | 27% | 1006 hPa | 0 mm | - | 360 W/m² | - |
| 1777846335 | 22.78° C | 26% | 1006.3 hPa | 0 mm | - | 373 W/m² | - |
| 1777846031 | 22.78° C | 28% | 1006.4 hPa | 0 mm | - | 398 W/m² | - |
| 1777845728 | 23.33° C | 26% | 1006.4 hPa | 0 mm | - | 404 W/m² | - |
| 1777845425 | 22.78° C | 26% | 1006.1 hPa | 0 mm | - | 436 W/m² | - |
| 1777845122 | 23.33° C | 27% | 1006.4 hPa | 0 mm | - | 433 W/m² | - |
| 1777844820 | 22.78° C | 26% | 1006.1 hPa | 0 mm | - | 472 W/m² | - |
| 1777844516 | 22.78° C | 27% | 1006.5 hPa | 0 mm | - | 484 W/m² | - |
| 1777844215 | 23.33° C | 27% | 1006.5 hPa | 0 mm | - | 432 W/m² | - |
| 1777843911 | 23.33° C | 29% | 1006.4 hPa | 0 mm | - | 453 W/m² | - |
| 1777843609 | 22.78° C | 27% | 1006.3 hPa | 0 mm | - | 523 W/m² | - |
* Rain latest hour (hover to see other rain measurements)
** Current wind speed in m/s (hover to see current wind gust speed)